Vorticity
2 3 3 3 3 3 5 6 8 9 9 8 8 8 8 7 7 7 7 8 8 8 8 8 8 8 8 8 8 8 7 7 8 8 9 10 10 9 8 6 3 3 4 8 10 9 7 4 3 4 7 9 10 9 7 5 5 5 5 5 6 6 7 8 9 9 9 8 8
3 3 3 3 3 3 4 6 7 8 8 8 8 7 7 7 7 7 8 9 9 9 8 8 8 8 8 8 8 8 8 7 8 9 9 10 10 9 7 4 2 3 6 9 11 10 8 5 4 4 6 9 10 10 8 5 5 5 5 5 5 6 7 8 9 9 9 8 7
2 2 3 3 4 4 5 6 6 7 7 7 7 7 7 7 8 8 9 9 9 9 9 8 9 8 8 8 8 8 8 8 8 9 10 10 10 9 6 2 2 5 8 11 12 11 9 6 5 5 6 8 11 10 8 6 5 4 5 5 5 6 7 8 9 9 9 8 7
1 1 2 4 5 5 5 5 5 6 7 7 7 7 7 8 9 9 10 9 9 9 9 9 8 8 8 8 8 8 9 9 9 9 10 10 10 8 5 2 3 5 8 11 12 12 10 7 5 5 6 9 11 10 8 6 4 4 5 5 5 6 7 8 9 9 9 8 8
1 2 3 4 5 5 4 4 4 5 6 7 7 7 7 8 9 10 10 10 9 9 9 8 8 8 8 9 8 8 8 9 9 10 10 11 10 8 5 3 4 5 8 11 13 13 11 7 6 6 7 9 11 11 8 6 4 4 4 5 5 6 7 8 9 9 9 8 8
3 3 3 4 4 4 4 4 5 5 5 6 6 7 7 8 9 10 10 10 10 9 9 8 8 8 8 8 8 8 8 9 9 10 11 11 10 7 5 4 4 6 8 11 13 14 12 7 6 6 8 10 12 11 9 5 5 4 4 4 5 6 7 8 9 9 9 8 8
7 4 3 3 4 4 4 4 4 4 4 5 6 6 7 8 9 10 10 10 10 9 9 8 8 8 8 8 8 8 8 9 10 10 11 11 9 8 6 4 4 6 8 10 12 13 13 9 6 6 7 10 12 11 8 6 5 4 4 4 5 5 6 8 9 9 9 8 8
12 7 3 2 3 3 3 3 2 2 3 5 5 6 7 8 10 11 11 10 9 9 9 8 8 8 8 8 8 8 8 9 10 11 11 11 9 8 6 4 5 7 9 10 12 12 12 10 8 7 8 10 11 10 8 6 5 4 4 4 5 5 6 8 9 9 9 8 8
13 9 5 2 2 3 3 2 1 2 3 5 6 6 7 8 10 11 10 9 9 8 8 7 8 8 8 8 8 8 9 9 10 10 11 12 10 8 6 5 5 6 8 11 12 12 11 10 10 9 9 10 11 10 8 6 5 4 4 4 5 5 6 8 9 10 9 8 8
11 8 5 3 3 3 3 1 2 3 4 5 6 7 8 9 10 9 9 8 8 7 7 7 7 7 7 8 8 8 9 9 10 10 11 12 12 9 7 5 5 6 7 10 11 11 10 11 11 10 10 11 11 10 8 6 5 5 4 4 4 5 6 8 9 10 9 9 8
14 11 9 7 6 5 4 3 3 4 6 6 7 8 8 9 9 8 7 7 7 6 7 7 7 7 7 7 8 8 8 9 10 10 11 12 13 11 8 6 6 6 6 8 10 10 10 12 12 11 11 12 11 10 8 6 5 5 4 4 4 5 7 8 10 10 10 8 7
22 18 15 12 9 7 6 5 4 5 6 7 7 8 8 9 8 7 7 6 6 6 6 7 7 7 7 7 7 8 8 9 10 11 12 13 13 11 9 7 7 7 7 8 8 9 11 14 13 12 11 12 12 11 9 6 5 4 4 4 4 5 7 9 10 10 10 8 7
25 23 21 18 14 10 8 6 5 6 6 7 8 8 9 8 8 7 6 5 5 5 6 7 7 7 7 7 8 8 8 9 10 11 12 13 13 12 10 8 8 7 7 8 8 9 11 14 14 13 12 12 12 11 9 6 5 4 4 4 4 5 7 9 10 10 9 8 7
22 23 23 21 18 14 11 8 7 7 8 8 9 9 9 8 7 6 5 4 4 5 6 6 7 8 9 9 8 8 8 8 9 10 12 13 14 13 11 9 9 8 7 7 8 8 10 13 15 15 14 13 12 11 9 7 5 4 4 4 5 6 8 9 10 10 9 8 7
17 20 22 22 20 18 15 13 11 11 10 10 10 9 9 8 7 6 4 4 4 5 6 7 8 9 10 10 9 8 8 8 9 10 12 13 15 15 13 10 9 8 7 7 8 8 9 13 15 16 16 15 13 11 9 7 5 4 4 4 5 6 8 10 10 10 10 8 6
15 17 19 20 21 20 19 17 15 14 12 11 10 10 9 8 7 5 4 4 4 5 7 8 10 10 11 10 10 9 8 9 10 11 12 14 16 16 15 12 9 7 7 8 7 7 8 12 15 17 17 16 14 11 8 6 5 4 4 4 5 6 8 10 11 10 9 8 6
14 16 17 18 19 20 20 19 17 16 14 13 11 10 9 8 7 6 5 5 6 7 8 10 11 11 11 10 10 10 10 10 11 12 14 16 17 17 15 12 9 7 7 9 6 4 4 10 16 19 20 18 14 11 8 5 5 4 4 4 5 6 8 10 11 10 9 8 6
14 15 16 17 18 19 19 19 18 16 15 13 12 11 10 9 9 8 8 8 9 10 11 12 12 12 11 11 11 11 11 11 12 14 15 17 18 17 15 12 8 7 7 9 4 1 2 9 17 21 21 19 15 11 7 5 5 4 4 5 5 7 8 10 11 10 9 7 6
14 15 15 16 17 17 17 18 17 16 15 14 13 12 12 12 11 11 11 12 12 12 12 12 12 11 11 12 12 13 13 14 14 14 16 17 18 18 16 11 8 7 8 8 2 -1 1 10 17 21 22 19 14 10 8 6 5 5 5 5 6 7 8 10 11 11 9 7 6
16 16 16 16 17 17 17 17 17 16 16 15 14 14 15 15 15 14 14 14 13 11 10 10 9 10 10 11 12 14 15 16 15 15 15 17 18 18 17 12 9 8 8 5 -1 -2 2 11 18 22 21 18 13 10 7 6 5 5 5 5 6 7 8 10 11 11 9 7 6
19 19 20 20 20 20 20 19 19 18 18 18 18 18 18 17 16 15 14 12 10 8 7 6 6 7 8 10 12 14 15 16 15 15 15 17 19 19 17 12 9 7 5 2 -2 -1 4 12 18 21 20 17 13 10 7 6 5 5 5 5 6 7 8 10 11 11 9 7 5
23 24 24 24 24 24 23 23 22 21 21 21 20 19 18 16 15 12 10 8 5 4 3 3 3 4 6 9 11 12 13 14 15 16 17 18 20 19 16 12 7 5 3 1 -0 1 6 12 18 20 19 16 13 10 7 6 6 6 5 5 6 7 8 10 11 11 9 7 5
25 25 26 25 25 25 25 24 23 22 22 20 19 16 14 11 9 6 4 2 1 0 0 1 1 3 5 7 10 10 11 12 15 17 19 20 19 18 14 10 5 3 3 3 3 3 6 12 17 19 19 16 13 10 7 6 6 6 5 5 6 7 8 10 11 11 9 7 5
19 20 20 20 20 20 20 20 19 18 17 14 12 9 7 4 2 1 -1 -1 -1 -1 -0 0 1 2 4 6 9 11 12 13 15 18 20 22 19 15 10 5 5 5 6 6 5 5 7 11 15 18 18 16 13 10 8 7 7 6 5 5 5 7 8 10 12 11 10 7 5
10 9 9 9 10 10 10 10 10 9 8 6 4 3 1 -0 -2 -2 -3 -2 -1 0 1 1 1 2 4 7 11 14 16 17 17 18 18 18 15 11 7 4 6 8 9 9 7 6 7 11 15 17 17 15 13 11 9 8 7 6 5 5 5 6 8 11 12 12 10 7 5
3 2 1 0 -0 -0 0 1 1 1 1 1 0 -0 -1 -2 -3 -3 -3 -2 1 2 2 1 1 3 6 10 12 16 19 21 20 17 14 12 11 10 9 9 10 11 11 11 7 6 7 11 15 17 16 15 13 11 9 8 8 7 6 5 5 6 8 10 12 12 10 8 5
1 0 -1 -2 -3 -4 -4 -4 -3 -3 -2 -1 -1 -1 -2 -2 -3 -3 -2 -0 2 2 2 2 4 7 10 13 16 19 21 21 19 17 14 12 12 12 13 13 13 13 13 12 8 6 6 10 14 16 16 15 14 11 9 8 7 7 6 5 5 5 7 10 12 12 11 8 6
-4 -2 -1 -1 -1 -1 -1 -3 -3 -4 -4 -5 -5 -5 -5 -4 -4 -3 -2 1 2 4 5 7 10 12 14 18 21 23 22 20 19 17 16 16 16 15 15 15 15 15 15 13 8 5 6 10 14 16 16 16 14 12 9 7 7 6 6 6 6 7 8 11 12 13 11 9 6
-10 -10 -9 -6 -4 -4 -4 -5 -6 -8 -10 -10 -10 -9 -9 -8 -6 -4 -1 2 4 7 10 12 14 17 20 23 26 27 26 24 21 20 18 17 17 17 16 15 16 16 16 14 7 4 5 9 13 16 17 17 14 12 9 8 7 6 6 5 6 7 8 11 13 13 12 10 7
16 5 -3 -8 -10 -10 -11 -11 -12 -12 -12 -11 -9 -8 -7 -5 -3 -0 3 6 10 14 16 18 21 24 27 29 31 32 31 29 26 23 21 19 18 17 17 17 17 17 17 13 7 4 4 8 13 16 17 17 14 11 9 8 7 6 5 5 5 6 8 10 12 13 13 11 8
42 42 38 30 22 16 11 8 7 6 6 7 7 8 8 9 10 12 14 17 21 24 27 29 29 29 29 31 33 34 34 33 29 26 24 22 20 18 17 17 18 18 17 14 8 4 4 8 14 17 18 17 14 11 9 8 7 7 6 4 5 5 7 9 12 13 13 12 9
25 35 43 47 47 45 42 39 36 34 32 31 30 28 27 25 25 26 28 31 34 35 35 34 31 29 28 28 30 33 34 35 32 30 27 25 21 18 17 18 19 19 18 14 9 5 5 8 14 17 18 17 14 11 9 8 7 7 6 5 4 5 7 9 11 13 14 13 10
14 18 22 25 27 28 29 30 30 31 31 32 33 34 34 34 34 36 37 38 38 37 35 32 27 24 22 23 25 29 32 34 34 33 30 27 23 19 18 19 21 22 20 15 9 5 5 8 14 17 18 17 14 11 8 7 7 7 6 5 4 5 6 8 11 13 13 13 11
15 15 14 13 12 12 13 14 16 18 20 23 26 29 32 33 34 34 34 33 31 29 26 22 18 14 13 13 17 21 25 30 32 32 30 27 23 20 20 21 25 25 22 15 9 5 5 9 14 17 18 17 13 10 8 7 7 7 6 5 4 5 6 8 10 12 13 13 12
17 15 12 9 9 9 11 13 14 16 18 21 23 24 25 25 25 24 22 21 19 17 14 9 6 5 5 7 10 13 17 22 26 29 29 27 23 21 21 23 26 26 23 16 9 6 6 9 14 17 18 16 13 10 8 7 7 6 6 5 5 5 6 7 9 11 13 14 13
17 12 9 7 7 8 11 14 16 17 18 19 18 17 16 15 15 15 14 13 10 6 3 0 0 2 4 6 8 10 12 15 20 24 27 26 24 24 25 27 27 25 22 15 9 6 6 10 14 17 17 16 13 11 9 7 6 6 6 5 5 5 5 7 8 11 13 14 13
14 10 7 5 5 7 9 13 15 15 15 13 10 8 8 9 11 11 11 9 4 0 -2 -0 3 6 8 9 10 10 12 13 15 18 21 22 23 25 29 33 31 27 22 15 9 5 6 9 14 16 17 16 13 11 9 7 6 6 6 5 5 5 5 6 8 10 12 14 14
11 8 6 5 5 6 8 11 12 11 9 7 4 4 5 7 10 11 9 6 1 -0 1 5 9 12 14 13 13 13 13 14 14 14 16 18 20 23 27 33 32 29 24 17 10 6 5 8 13 16 17 16 14 11 8 6 6 6 6 5 5 5 5 6 7 9 11 13 14
9 7 7 7 7 7 7 9 9 7 6 4 3 2 4 6 9 9 7 3 1 2 5 10 13 15 16 15 14 14 15 15 15 15 15 18 21 22 24 28 30 29 25 20 13 7 5 8 13 16 17 16 14 11 8 6 6 6 6 5 5 5 5 5 7 9 11 13 14
9 8 8 9 8 7 6 6 6 5 4 3 2 2 2 4 6 6 5 3 2 4 7 11 14 15 15 14 14 14 15 16 17 17 17 20 22 22 22 24 28 27 25 22 16 10 7 8 13 16 17 16 14 11 8 6 6 5 5 4 4 5 5 6 7 8 10 13 14
11 10 10 10 8 6 4 4 5 5 6 6 5 3 2 2 4 4 4 2 2 4 7 10 12 13 13 13 13 13 14 15 17 18 18 19 21 22 23 24 26 25 23 21 16 12 9 9 13 16 17 16 14 11 8 6 6 6 5 4 4 4 5 6 7 8 10 12 13
Height
3075 3074 3073 3072 3071 3069 3068 3067 3066 3064 3063 3061 3060 3059 3058 3056 3055 3054 3052 3051 3050 3048 3047 3046 3044 3043 3041 3040 3038 3037 3036 3034 3033 3032 3031 3030 3029 3027 3026 3024 3022 3020 3018 3017 3016 3015 3014 3013 3012 3011 3010 3009 3008 3006 3004 3002 3001 2999 2998 2996 2995 2993 2992 2990 2988 2987 2985 2983 2981
3071 3071 3070 3069 3067 3066 3065 3064 3062 3061 3060 3058 3057 3056 3055 3053 3052 3051 3049 3048 3047 3046 3044 3042 3041 3040 3038 3037 3036 3034 3032 3031 3030 3029 3028 3027 3026 3024 3022 3021 3018 3016 3015 3014 3012 3011 3011 3010 3009 3008 3007 3006 3005 3003 3001 2999 2998 2997 2995 2994 2992 2991 2989 2988 2986 2985 2983 2981 2979
3068 3067 3066 3065 3064 3063 3061 3061 3059 3058 3056 3055 3054 3053 3051 3050 3049 3048 3046 3045 3044 3042 3041 3040 3038 3037 3036 3034 3032 3031 3029 3028 3027 3026 3025 3024 3022 3021 3019 3017 3015 3013 3011 3011 3009 3008 3007 3006 3006 3005 3004 3003 3002 3001 2999 2997 2996 2994 2993 2992 2990 2989 2987 2986 2984 2982 2981 2979 2977
3065 3064 3063 3062 3061 3060 3058 3057 3056 3055 3053 3052 3051 3050 3048 3047 3046 3045 3043 3042 3041 3039 3038 3036 3035 3034 3032 3031 3029 3028 3026 3025 3024 3022 3021 3021 3019 3018 3016 3013 3011 3010 3008 3007 3006 3005 3004 3003 3003 3002 3001 3000 2999 2998 2996 2994 2993 2992 2991 2990 2988 2986 2985 2983 2981 2980 2978 2977 2975
3061 3061 3060 3058 3057 3056 3055 3053 3052 3051 3050 3048 3047 3046 3045 3044 3043 3042 3041 3039 3038 3036 3035 3033 3032 3031 3029 3028 3026 3025 3023 3022 3021 3020 3018 3017 3016 3014 3012 3010 3008 3006 3005 3004 3003 3002 3001 3000 3000 2999 2998 2997 2996 2995 2993 2992 2991 2990 2988 2987 2986 2984 2982 2981 2979 2978 2976 2975 2973
3058 3057 3056 3055 3054 3053 3051 3050 3049 3047 3046 3045 3044 3043 3042 3041 3040 3039 3037 3036 3035 3033 3032 3030 3029 3027 3026 3025 3023 3022 3020 3019 3018 3016 3015 3014 3012 3011 3009 3007 3005 3003 3002 3001 3000 2999 2998 2997 2996 2996 2995 2994 2993 2992 2991 2990 2988 2987 2986 2985 2983 2982 2980 2979 2977 2976 2974 2972 2971
3055 3054 3053 3052 3051 3050 3048 3047 3046 3044 3042 3041 3040 3039 3039 3038 3037 3036 3034 3033 3031 3030 3029 3027 3026 3024 3023 3021 3020 3019 3017 3016 3015 3013 3012 3011 3009 3007 3006 3003 3001 3000 2999 2997 2996 2995 2995 2994 2994 2993 2992 2991 2991 2990 2988 2987 2986 2985 2984 2983 2981 2980 2978 2976 2975 2973 2972 2970 2969
3052 3051 3050 3049 3048 3047 3045 3044 3042 3041 3039 3038 3036 3036 3035 3035 3034 3032 3031 3030 3028 3027 3026 3024 3023 3021 3020 3018 3017 3016 3014 3013 3011 3010 3009 3007 3006 3004 3002 3000 2998 2996 2995 2994 2993 2992 2991 2991 2991 2990 2990 2989 2988 2987 2986 2985 2983 2982 2981 2980 2979 2977 2976 2974 2972 2971 2970 2968 2966
3048 3048 3047 3046 3045 3043 3042 3041 3039 3037 3036 3034 3033 3033 3032 3031 3031 3029 3028 3027 3025 3024 3022 3021 3020 3018 3017 3015 3014 3012 3011 3010 3008 3007 3006 3004 3002 3001 2999 2997 2995 2993 2992 2991 2990 2989 2988 2988 2988 2987 2987 2986 2985 2984 2983 2982 2981 2980 2979 2978 2977 2975 2974 2972 2970 2969 2967 2966 2965
3045 3044 3043 3042 3041 3040 3038 3036 3035 3034 3032 3031 3030 3030 3029 3028 3027 3026 3025 3024 3022 3021 3019 3018 3016 3015 3014 3012 3011 3009 3008 3006 3005 3004 3002 3001 2999 2997 2995 2993 2991 2990 2989 2987 2986 2986 2985 2985 2985 2985 2984 2983 2982 2981 2981 2979 2978 2977 2976 2976 2975 2973 2971 2970 2968 2966 2965 2964 2962
3041 3040 3039 3038 3037 3036 3034 3033 3031 3030 3029 3028 3027 3026 3026 3025 3024 3023 3022 3020 3019 3017 3016 3015 3013 3012 3011 3009 3008 3006 3005 3003 3002 3001 2999 2997 2996 2994 2992 2990 2988 2987 2985 2984 2983 2982 2982 2982 2982 2982 2981 2981 2980 2979 2978 2977 2976 2975 2974 2973 2972 2971 2970 2968 2966 2964 2963 2961 2960
3038 3036 3036 3035 3033 3032 3031 3029 3028 3026 3026 3025 3024 3023 3022 3022 3021 3020 3018 3017 3016 3015 3013 3012 3010 3009 3007 3006 3005 3003 3002 3000 2999 2997 2996 2994 2992 2991 2988 2986 2985 2983 2982 2980 2979 2979 2979 2980 2980 2979 2978 2977 2977 2976 2975 2974 2973 2972 2971 2971 2970 2969 2967 2966 2964 2962 2961 2959 2958
3034 3033 3032 3031 3030 3028 3027 3026 3024 3023 3022 3021 3021 3020 3019 3019 3018 3016 3015 3014 3013 3011 3010 3009 3007 3006 3004 3003 3001 3000 2998 2997 2995 2994 2992 2991 2989 2987 2985 2983 2981 2980 2978 2977 2976 2976 2977 2977 2977 2976 2976 2975 2974 2973 2972 2971 2971 2970 2969 2968 2967 2966 2965 2963 2962 2960 2958 2957 2956
3031 3030 3029 3028 3026 3025 3024 3022 3021 3020 3019 3018 3018 3017 3016 3015 3014 3013 3012 3011 3010 3008 3007 3006 3004 3003 3001 3000 2998 2997 2995 2994 2992 2990 2988 2987 2985 2984 2981 2980 2978 2976 2975 2973 2973 2973 2974 2974 2974 2973 2973 2972 2971 2971 2970 2969 2968 2967 2966 2966 2965 2964 2962 2961 2960 2958 2956 2955 2953
3028 3027 3026 3025 3023 3022 3021 3020 3018 3017 3016 3015 3015 3014 3013 3012 3011 3010 3009 3007 3006 3005 3004 3002 3001 3000 2998 2996 2995 2993 2991 2990 2988 2986 2985 2983 2982 2980 2978 2976 2974 2972 2971 2970 2970 2971 2972 2972 2971 2971 2970 2969 2969 2968 2967 2966 2965 2964 2964 2963 2962 2961 2960 2959 2957 2956 2954 2952 2951
3025 3024 3022 3021 3020 3019 3018 3017 3016 3014 3013 3012 3011 3010 3009 3008 3008 3006 3006 3004 3003 3002 3001 2999 2998 2996 2995 2993 2991 2990 2988 2986 2985 2983 2981 2980 2978 2976 2975 2973 2971 2969 2967 2966 2967 2968 2969 2969 2968 2967 2967 2966 2966 2966 2965 2964 2963 2962 2961 2960 2960 2959 2958 2956 2955 2953 2952 2951 2949
3022 3021 3019 3018 3017 3016 3015 3014 3012 3011 3010 3009 3008 3007 3006 3005 3004 3003 3002 3001 3000 2999 2997 2996 2995 2993 2991 2990 2988 2986 2984 2982 2981 2979 2977 2976 2975 2973 2971 2969 2967 2965 2964 2964 2965 2966 2967 2966 2966 2965 2964 2964 2963 2963 2962 2961 2960 2959 2958 2958 2957 2956 2955 2954 2953 2951 2950 2948 2947
3019 3017 3016 3015 3013 3012 3011 3010 3009 3008 3007 3006 3005 3004 3003 3002 3001 3001 3000 2998 2997 2996 2994 2993 2991 2990 2988 2986 2984 2982 2981 2979 2977 2975 2974 2972 2971 2969 2967 2965 2963 2961 2960 2961 2962 2964 2965 2964 2963 2962 2961 2961 2961 2960 2959 2958 2957 2956 2956 2955 2955 2954 2953 2952 2951 2949 2947 2946 2945
3015 3014 3012 3011 3010 3009 3008 3007 3006 3005 3004 3003 3001 3001 3000 2999 2998 2997 2996 2995 2993 2992 2990 2989 2987 2986 2984 2982 2980 2979 2977 2975 2973 2971 2970 2969 2967 2966 2964 2961 2959 2958 2957 2958 2960 2962 2962 2961 2960 2959 2959 2958 2958 2957 2957 2956 2955 2954 2953 2953 2952 2951 2950 2949 2948 2947 2945 2944 2942
3012 3010 3009 3008 3006 3006 3005 3003 3002 3001 3001 3000 2999 2998 2997 2996 2995 2994 2992 2991 2990 2988 2986 2985 2983 2982 2980 2978 2976 2975 2973 2971 2970 2968 2966 2965 2963 2961 2960 2958 2956 2954 2954 2956 2958 2960 2960 2959 2957 2956 2956 2956 2955 2955 2954 2953 2952 2951 2951 2950 2949 2949 2948 2947 2946 2944 2943 2942 2940
3008 3006 3005 3004 3003 3002 3001 3000 2999 2998 2997 2996 2995 2994 2993 2992 2991 2990 2988 2987 2986 2984 2983 2981 2980 2978 2976 2975 2973 2971 2969 2968 2966 2964 2962 2961 2959 2958 2956 2954 2952 2951 2951 2953 2956 2957 2957 2956 2955 2954 2953 2953 2952 2952 2951 2951 2950 2949 2948 2948 2947 2946 2946 2945 2944 2942 2941 2939 2938
3004 3003 3002 3001 3000 2999 2998 2997 2996 2995 2994 2993 2992 2991 2990 2988 2987 2986 2985 2983 2982 2981 2979 2978 2976 2974 2973 2971 2969 2967 2965 2964 2962 2960 2958 2956 2955 2954 2952 2951 2949 2948 2949 2951 2954 2955 2954 2953 2952 2951 2950 2950 2950 2949 2949 2948 2947 2946 2946 2945 2945 2944 2943 2942 2941 2940 2939 2937 2936
3001 3000 2999 2997 2996 2995 2994 2993 2992 2991 2991 2989 2988 2987 2986 2985 2983 2982 2981 2980 2978 2977 2976 2974 2972 2971 2969 2967 2965 2963 2961 2959 2957 2956 2954 2953 2951 2950 2949 2947 2946 2945 2947 2950 2952 2952 2951 2950 2949 2948 2947 2947 2947 2946 2946 2946 2945 2944 2943 2943 2942 2942 2941 2941 2939 2938 2936 2935 2934
2998 2997 2996 2994 2993 2992 2991 2990 2989 2988 2987 2986 2985 2983 2982 2981 2980 2979 2978 2976 2975 2973 2972 2970 2969 2967 2965 2963 2961 2959 2957 2955 2953 2951 2950 2949 2947 2946 2945 2944 2943 2943 2945 2948 2950 2950 2949 2947 2946 2945 2945 2944 2944 2944 2944 2943 2943 2942 2941 2940 2940 2939 2939 2938 2937 2936 2935 2933 2932
2995 2994 2992 2991 2990 2989 2988 2987 2986 2985 2984 2982 2981 2980 2979 2978 2976 2975 2974 2972 2971 2969 2968 2966 2965 2963 2961 2959 2957 2955 2953 2951 2949 2947 2946 2945 2944 2943 2942 2941 2941 2941 2943 2946 2947 2947 2946 2945 2943 2942 2942 2941 2941 2941 2941 2941 2940 2939 2938 2938 2937 2937 2936 2936 2935 2934 2932 2931 2930
2992 2991 2989 2988 2987 2986 2985 2984 2983 2982 2981 2979 2978 2976 2975 2974 2972 2971 2970 2968 2967 2965 2964 2962 2960 2959 2957 2955 2953 2951 2948 2946 2945 2943 2942 2942 2941 2941 2940 2939 2938 2939 2941 2943 2944 2944 2943 2942 2941 2940 2939 2939 2939 2939 2939 2939 2938 2937 2936 2935 2935 2934 2934 2933 2932 2931 2930 2929 2928
2989 2988 2986 2985 2984 2983 2982 2981 2980 2979 2977 2976 2974 2973 2971 2970 2968 2967 2966 2964 2963 2961 2959 2958 2956 2954 2952 2950 2948 2946 2944 2942 2941 2940 2940 2939 2939 2938 2937 2936 2936 2936 2938 2941 2941 2941 2940 2939 2938 2937 2936 2936 2936 2937 2937 2936 2936 2935 2933 2933 2932 2932 2931 2931 2931 2930 2928 2927 2926
2986 2985 2984 2982 2981 2980 2979 2978 2976 2975 2974 2972 2971 2969 2967 2966 2964 2963 2961 2960 2958 2957 2955 2953 2952 2950 2948 2946 2944 2942 2941 2940 2939 2938 2937 2937 2936 2935 2934 2933 2933 2934 2936 2938 2938 2938 2937 2936 2936 2935 2934 2934 2934 2934 2934 2934 2933 2932 2931 2931 2930 2930 2930 2929 2929 2927 2926 2925 2924
2984 2982 2981 2980 2978 2977 2976 2975 2973 2972 2970 2969 2967 2965 2964 2962 2961 2959 2957 2956 2954 2953 2951 2949 2947 2945 2944 2942 2941 2940 2938 2937 2936 2935 2934 2934 2933 2932 2931 2931 2930 2931 2933 2935 2935 2935 2934 2934 2933 2932 2931 2931 2931 2931 2932 2932 2931 2930 2929 2929 2928 2928 2928 2927 2926 2925 2924 2923 2922
2981 2979 2978 2976 2975 2974 2973 2971 2970 2968 2967 2965 2963 2961 2960 2958 2957 2955 2953 2952 2950 2948 2946 2945 2943 2942 2941 2939 2938 2936 2935 2934 2933 2932 2931 2931 2930 2929 2928 2928 2928 2929 2931 2932 2932 2932 2932 2931 2931 2930 2929 2928 2928 2929 2929 2929 2929 2928 2927 2926 2926 2926 2925 2925 2924 2923 2922 2921 2920
2977 2976 2974 2973 2971 2970 2969 2968 2966 2965 2963 2961 2960 2958 2956 2954 2952 2951 2949 2947 2946 2944 2943 2942 2941 2939 2938 2936 2935 2933 2932 2931 2930 2929 2928 2927 2927 2926 2926 2925 2925 2926 2927 2929 2930 2930 2929 2929 2928 2927 2926 2926 2926 2926 2926 2926 2926 2925 2924 2924 2923 2923 2922 2922 2921 2920 2919 2918 2917
2973 2972 2970 2969 2967 2966 2965 2963 2962 2961 2959 2957 2955 2953 2951 2950 2948 2946 2945 2944 2943 2941 2940 2939 2937 2936 2935 2933 2931 2930 2929 2927 2926 2926 2925 2924 2924 2923 2922 2922 2922 2923 2925 2926 2927 2927 2926 2926 2925 2925 2924 2923 2923 2923 2923 2924 2923 2923 2922 2921 2921 2921 2920 2919 2919 2918 2917 2916 2915
2969 2968 2966 2965 2963 2962 2960 2959 2957 2956 2954 2952 2951 2949 2947 2946 2944 2943 2942 2941 2940 2938 2937 2936 2934 2933 2931 2930 2928 2927 2926 2925 2924 2923 2922 2921 2921 2920 2919 2919 2919 2920 2922 2923 2924 2924 2924 2923 2923 2922 2921 2921 2921 2921 2921 2921 2921 2920 2919 2919 2918 2918 2917 2917 2916 2915 2914 2913 2912
2966 2964 2963 2961 2960 2958 2956 2955 2953 2952 2950 2949 2947 2946 2944 2943 2941 2940 2939 2938 2936 2935 2934 2933 2931 2930 2929 2927 2926 2924 2923 2922 2921 2920 2919 2918 2918 2917 2916 2916 2916 2918 2919 2921 2921 2921 2921 2921 2920 2919 2919 2918 2918 2918 2918 2918 2918 2917 2917 2916 2916 2916 2915 2914 2914 2913 2912 2911 2910
2962 2961 2959 2958 2956 2954 2953 2951 2950 2948 2947 2945 2944 2943 2941 2940 2939 2937 2936 2935 2934 2933 2931 2930 2929 2927 2926 2925 2923 2922 2920 2919 2918 2917 2916 2916 2915 2914 2913 2913 2914 2916 2917 2917 2918 2918 2918 2918 2917 2917 2916 2916 2915 2916 2916 2916 2916 2915 2914 2914 2913 2913 2912 2912 2911 2910 2909 2909 2908
2959 2958 2956 2954 2953 2951 2950 2948 2946 2945 2944 2943 2941 2940 2939 2937 2936 2935 2934 2932 2931 2930 2929 2928 2926 2925 2924 2922 2921 2919 2918 2916 2915 2914 2914 2913 2912 2911 2911 2911 2911 2913 2914 2915 2915 2915 2915 2915 2915 2914 2913 2913 2913 2913 2913 2913 2913 2913 2912 2911 2911 2911 2910 2909 2909 2908 2907 2906 2905
2956 2954 2953 2951 2950 2948 2946 2945 2944 2942 2941 2940 2939 2937 2936 2935 2934 2932 2931 2930 2929 2927 2926 2925 2924 2922 2921 2920 2918 2917 2915 2914 2913 2912 2911 2910 2909 2909 2908 2908 2909 2910 2911 2912 2912 2912 2912 2912 2912 2911 2911 2910 2910 2911 2911 2911 2911 2910 2910 2909 2908 2908 2908 2907 2906 2906 2905 2904 2903
2952 2951 2950 2948 2947 2945 2944 2942 2941 2940 2939 2937 2936 2935 2933 2932 2931 2930 2929 2927 2926 2925 2924 2923 2921 2920 2918 2917 2915 2914 2912 2911 2910 2909 2908 2907 2906 2906 2906 2906 2906 2907 2908 2909 2909 2910 2910 2910 2909 2909 2908 2908 2908 2908 2908 2908 2908 2908 2907 2907 2906 2906 2905 2905 2904 2903 2902 2901 2901
2949 2947 2946 2945 2944 2942 2941 2940 2938 2937 2936 2934 2933 2932 2931 2929 2928 2927 2926 2925 2923 2922 2921 2920 2918 2917 2915 2914 2912 2911 2910 2908 2907 2906 2906 2905 2904 2904 2903 2903 2904 2905 2906 2906 2906 2907 2907 2907 2907 2906 2906 2905 2905 2906 2906 2906 2906 2906 2905 2905 2904 2903 2903 2902 2902 2901 2900 2899 2898
2945 2944 2943 2942 2941 2939 2938 2937 2935 2934 2933 2931 2930 2929 2928 2926 2926 2924 2923 2922 2921 2919 2918 2917 2916 2914 2913 2911 2910 2908 2907 2906 2905 2904 2903 2902 2902 2901 2901 2901 2901 2902 2902 2903 2904 2904 2904 2904 2904 2904 2903 2902 2903 2903 2903 2903 2903 2903 2903 2902 2902 2901 2901 2900 2899 2899 2898 2897 2896
2942 2941 2940 2939 2938 2936 2935 2934 2932 2931 2930 2929 2927 2926 2925 2924 2923 2921 2921 2919 2918 2917 2915 2914 2913 2911 2910 2908 2907 2906 2905 2903 2902 2901 2900 2900 2899 2898 2898 2898 2898 2899 2900 2900 2901 2901 2901 2901 2901 2901 2901 2900 2900 2900 2901 2901 2901 2901 2901 2900 2900 2899 2898 2898 2897 2896 2896 2895 2894